This demonstration page uses our WeatherBlox Daily Observations layout. Learn more.

Left ArrowRight Arrow

Hourly Observations for August 30, 2015

Temp ( °F °C ) Dew Point ( °F °C ) Humidity (%) Winds ( mph kmh ) Pressure ( in mb ) Visibility ( mi km ) Precip ( " mm )
12:15 am 00:15 Clear 63 17.3 58 14.3 83 83 Calm 29.97 1015 10 16 N/A
12:35 am 00:35 Clear 64 17.6 58 14.5 82 82 SSE 6 9 29.97 1015 10 16 N/A
12:55 am 00:55 Clear 63 17.1 58 14.5 85 85 SSE 7 11 29.97 1015 10 16 N/A
1:15 am 01:15 Clear 64 17.7 59 15 84 84 SSE 7 11 29.97 1015 10 16 N/A
1:35 am 01:35 Clear 63 17.4 58 14.7 84 84 SSE 3 6 29.97 1015 10 16 N/A
1:55 am 01:55 Clear 64 17.6 59 15.1 85 85 SSE 7 11 29.97 1015 10 16 N/A
2:15 am 02:15 Clear 63 17.2 59 15 87 87 SSW 5 7 29.97 1015 10 16 N/A
2:35 am 02:35 Clear 62 16.7 58 14.7 88 88 SSE 5 7 29.97 1015 10 16 N/A
2:55 am 02:55 Clear 63 17.1 59 15.1 88 88 S 6 9 29.97 1015 10 16 N/A
3:15 am 03:15 Clear 62 16.9 59 15.2 90 90 Calm 29.97 1015 10 16 N/A
3:35 am 03:35 Clear 61 16.2 58 14.5 90 90 Calm 30.00 1016 10 16 N/A
3:55 am 03:55 Clear 61 16.3 59 14.8 91 91 SE 5 7 30.00 1016 10 16 N/A
4:15 am 04:15 Clear 60 15.5 57 14 91 91 SSE 5 7 30.00 1016 10 16 N/A
4:35 am 04:35 Clear 59 14.8 56 13.4 91 91 SE 5 7 30.00 1016 10 16 N/A
4:55 am 04:55 Clear 59 14.8 57 13.7 93 93 Calm 30.00 1016 10 16 N/A
5:15 am 05:15 Clear 60 15.3 58 14.4 94 94 SE 5 7 30.00 1016 10 16 N/A
5:35 am 05:35 Clear 60 15.4 58 14.4 94 94 SE 6 9 30.00 1016 10 16 N/A
5:55 am 05:55 Clear 61 16 58 14.7 92 92 SE 5 7 30.00 1016 10 16 N/A
6:15 am 06:15 Clear 60 15.4 57 14.1 92 92 ESE 6 9 30.00 1016 10 16 N/A
6:35 am 06:35 Clear 60 15.5 58 14.4 93 93 SE 3 6 30.00 1016 10 16 N/A
6:55 am 06:55 Clear 59 15 57 14.1 94 94 SE 5 7 30.00 1016 7 11 N/A
7:15 am 07:15 Sunny 59 15.1 58 14.2 94 94 SSE 5 7 30.00 1016 10 16 N/A
7:35 am 07:35 Sunny with Mist and Fog 57 14 56 13.1 94 94 SE 3 6 30.00 1016 5 8 N/A
7:55 am 07:55 Sunny 58 14.5 57 13.7 95 95 Calm 30.00 1016 7 11 N/A
8:15 am 08:15 Sunny 59 14.9 58 14.2 96 96 Calm 30.00 1016 7 11 N/A
8:35 am 08:35 Sunny 61 15.9 59 15.1 95 95 SE 3 6 30.00 1016 7 11 N/A
8:55 am 08:55 Sunny 63 17.1 61 16 93 93 SSE 5 7 29.97 1015 10 16 N/A
9:15 am 09:15 Sunny 64 17.9 61 16.1 89 89 SE 5 7 29.97 1015 10 16 N/A
9:35 am 09:35 Sunny 66 18.7 62 16.5 87 87 SE 6 9 29.97 1015 10 16 N/A
9:55 am 09:55 Sunny 68 20 63 17 83 83 SSE 5 7 29.97 1015 10 16 N/A
10:15 am 10:15 Sunny 70 21.1 63 17.1 78 78 SE 5 7 29.94 1014 10 16 N/A
10:35 am 10:35 Sunny 74 23.1 63 17.4 70 70 SSE 6 9 29.94 1014 10 16 N/A
10:55 am 10:55 Sunny 77 24.8 63 17 62 62 S 6 9 29.91 1013 10 16 N/A
11:15 am 11:15 Sunny 78 25.7 63 17 59 59 S 6 9 29.91 1013 10 16 N/A
11:35 am 11:35 Sunny 80 26.4 62 16.4 54 54 SSE 7 11 29.91 1013 10 16 N/A
11:55 am 11:55 Sunny 82 27.9 61 15.9 48 48 SSE 8 13 29.88 1012 10 16 N/A
12:15 pm 12:15 Sunny 84 28.8 58 14.7 42 42 SSE 13 20 29.85 1011 10 16 N/A
12:35 pm 12:35 Sunny 85 29.6 59 14.8 41 41 SSE 13 20 29.85 1011 10 16 N/A
12:55 pm 12:55 Sunny 86 29.8 58 14.2 39 39 S 15 24 29.85 1011 10 16 N/A
1:15 pm 13:15 Sunny 87 30.6 59 15.1 39 39 S 10 17 29.83 1010 10 16 N/A
1:35 pm 13:35 Sunny 86 30.2 58 14.4 38 38 SSE 13 20 29.85 1011 10 16 N/A
1:55 pm 13:55 Sunny 87 30.7 58 14.3 37 37 SSE 13 20 29.83 1010 10 16 N/A
2:15 pm 14:15 Sunny 88 31.1 55 13 33 33 S 14 22 29.83 1010 10 16 N/A
2:35 pm 14:35 Sunny 89 31.7 56 13.3 33 33 S 16 26 29.83 1010 10 16 N/A
2:55 pm 14:55 Sunny 88 31.2 58 14.7 37 37 SSE 14 22 29.80 1009 10 16 N/A
3:15 pm 15:15 Sunny 88 31.2 59 15 37 37 SSE 14 22 29.80 1009 10 16 N/A
3:35 pm 15:35 Sunny 89 31.7 58 14.6 35 35 SSE 14 22 29.80 1009 10 16 N/A
3:55 pm 15:55 Sunny 89 31.8 58 14.6 35 35 SSE 13 20 29.80 1009 10 16 N/A
4:15 pm 16:15 Sunny 89 31.9 58 14.6 35 35 SSE 16 26 29.80 1009 10 16 N/A
4:35 pm 16:35 Sunny 89 31.6 58 14.5 35 35 SSE 16 26 29.77 1008 10 16 N/A
4:55 pm 16:55 Sunny 88 31.3 59 14.9 37 37 SSE 17 28 29.77 1008 10 16 N/A
5:15 pm 17:15 Sunny 88 31 60 15.7 40 40 SSE 15 24 29.77 1008 10 16 N/A
5:35 pm 17:35 Sunny 87 30.7 61 16 41 41 SSE 16 26 29.77 1008 10 16 N/A
5:55 pm 17:55 Sunny 86 30.2 62 16.4 43 43 SSE 16 26 29.77 1008 10 16 N/A
6:15 pm 18:15 Sunny 84 29.1 63 17.2 49 49 SSE 17 28 29.80 1009 10 16 N/A
6:35 pm 18:35 Sunny 83 28.6 63 17.3 50 50 SE 18 30 29.77 1008 10 16 N/A
6:55 pm 18:55 Sunny 82 27.6 63 17.2 53 53 SE 15 24 29.77 1008 10 16 N/A
7:15 pm 19:15 Sunny 81 27 63 17 54 54 SE 14 22 29.77 1008 10 16 N/A
7:35 pm 19:35 Sunny 79 26 62 16.8 57 57 SE 10 17 29.77 1008 10 16 N/A
7:55 pm 19:55 Sunny 77 25.1 62 16.5 59 59 SE 12 19 29.80 1009 10 16 N/A
8:15 pm 20:15 Sunny 75 24.1 63 17 65 65 SE 13 20 29.80 1009 10 16 N/A
8:35 pm 20:35 Clear 74 23.4 62 16.6 66 66 SE 14 22 29.80 1009 10 16 N/A
8:55 pm 20:55 Clear 73 22.5 62 16.6 69 69 SE 13 20 29.83 1010 10 16 N/A
9:15 pm 21:15 Clear 72 22 62 16.6 72 72 SSE 14 22 29.85 1011 10 16 N/A
9:35 pm 21:35 Clear 70 21.2 62 16.7 76 76 SSE 14 22 29.85 1011 10 16 N/A
9:55 pm 21:55 Clear 70 21 62 16.8 77 77 SSE 14 22 29.85 1011 10 16 N/A
10:15 pm 22:15 Clear 69 20.7 63 17 79 79 SSE 13 20 29.85 1011 10 16 N/A
10:35 pm 22:35 Clear 69 20.5 63 17.1 81 81 SSE 13 20 29.85 1011 10 16 N/A
10:55 pm 22:55 Clear 68 20.2 63 17.1 82 82 SSE 14 22 29.85 1011 10 16 N/A
11:15 pm 23:15 Clear 68 20 63 17.3 85 85 SSE 12 19 29.85 1011 10 16 N/A
11:35 pm 23:35 Clear 68 20 64 17.5 86 86 SSE 16 26 29.85 1011 10 16 N/A
11:55 pm 23:55 Clear 68 20 64 17.6 86 86 SSE 13 20 29.85 1011 10 16 N/A

Powered by AerisWeather